{"data":{"norad_id":67577,"epoch":"2026-09-19T22:34:08.229792Z","epoch_age_seconds":120607,"freshness":"FRESH","line1":"1 67577U 26016S   26262.94037303  .00021086  00000+0  65337-3 0  9997","line2":"2 67577  97.2860 321.5951 0000772  97.2643 262.8687 15.33458938 36635","mean_motion":15.33458938,"eccentricity":7.72e-5,"inclination_deg":97.286,"raan_deg":321.5951,"arg_perigee_deg":97.2643,"mean_anomaly_deg":262.8687,"bstar":0.00065337,"rev_number":3663,"period_min":93.905351119353,"perigee_km":464.97337620242,"apogee_km":466.03003401849,"semimajor_km":6843.6387051105,"source":"CELESTRAK","updated_at":"2026-09-20T09:00:43.577572Z"}}